FW6402 Weather Reports


Display with metric or nautical units.
time (UTC)temp
F
wind
direction
speed
MPH
gust
MPH
rain 1hr
in
rain 24hr
in
rain mn
in
humidity
%
barometer
mb
20260901070418 63 199 2.0 4.0 0.00 0.00 0.00 75 1011.7
20260901065934 64 2 1.0 8.0 0.00 0.00 0.00 74 1011.7
20260901065432 64 252 1.0 8.0 0.00 0.00 0.00 73 1011.7
20260901064941 64 276 2.0 5.0 0.00 0.00 0.00 72 1011.6
20260901064437 65 278 1.0 7.0 0.00 0.00 0.00 72 1011.6
20260901063933 65 250 3.0 7.0 0.00 0.00 0.00 71 1011.3
20260901063431 65 247 1.0 3.0 0.00 0.00 0.00 71 1011.3
20260901062936 65 236 1.0 3.0 0.00 0.00 0.00 70 1011.3
20260901062432 66 266 1.0 2.0 0.00 0.00 0.00 70 1011.1
20260901061927 66 243 0.0 4.0 0.00 0.00 0.00 70 1011.1
20260901061424 66 251 1.0 4.0 0.00 0.00 0.00 69 1011.0
20260901060944 66 272 1.0 4.0 0.00 0.00 0.00 69 1011.0
20260901060442 67 257 1.0 3.0 0.00 0.00 0.00 69 1010.9
20260901055919 67 47 1.0 4.0 0.00 0.00 0.00 68 1010.8
20260901055435 67 310 1.0 4.0 0.00 0.00 0.00 68 1010.8
20260901054934 67 221 1.0 3.0 0.00 0.00 0.00 67 1010.8
20260901054432 68 230 1.0 3.0 0.00 0.00 0.00 67 1010.8
20260901053958 68 235 1.0 4.0 0.00 0.00 0.00 67 1010.6
20260901053432 68 283 2.0 4.0 0.00 0.00 0.00 67 1010.6
20260901052931 68 295 2.0 4.0 0.00 0.00 0.00 67 1010.5
20260901052448 68 274 1.0 4.0 0.00 0.00 0.00 66 1010.6
20260901051922 68 237 1.0 4.0 0.00 0.00 0.00 66 1010.5
20260901051503 68 261 1.0 2.0 0.00 0.00 0.00 66 1010.5
20260901050921 68 227 0.0 1.0 0.00 0.00 0.00 66 1010.5
20260901050417 68 18 0.0 1.0 0.00 0.00 0.00 66 1010.3
20260901045942 68 18 0.0 1.0 0.00 0.00 0.00 66 1010.2
20260901045440 69 234 0.0 1.0 0.00 0.00 0.00 66 1010.3
20260901044939 69 233 0.0 1.0 0.00 0.00 0.00 65 1010.3
20260901044431 69 234 0.0 1.0 0.00 0.00 0.00 64 1010.2
20260901043928 70 234 0.0 1.0 0.00 0.00 0.00 63 1010.2
20260901043455 70 86 0.0 1.0 0.00 0.00 0.00 63 1010.0
20260901042951 70 86 0.0 1.0 0.00 0.00 0.00 62 1009.9
20260901042433 71 85 0.0 3.0 0.00 0.00 0.00 61 1009.8
20260901041930 71 85 1.0 3.0 0.00 0.00 0.00 61 1009.7
20260901041426 71 224 0.0 3.0 0.00 0.00 0.00 59 1009.7
20260901040947 71 221 0.0 0.0 0.00 0.00 0.00 58 1009.6
20260901040424 71 221 0.0 0.0 0.00 0.00 0.00 58 1009.6
20260901035921 72 221 0.0 0.0 0.00 0.00 0.00 56 1009.4
20260901035436 72 221 0.0 0.0 0.00 0.00 0.00 57 1009.4
20260901035002 72 221 0.0 0.0 0.00 0.00 0.00 57 1009.3
20260901034419 73 221 0.0 0.0 0.00 0.00 0.00 56 1009.2
20260901033917 73 221 0.0 0.0 0.00 0.00 0.00 54 1009.1
20260901033435 74 221 0.0 0.0 0.00 0.00 0.00 53 1009.1
20260901032932 74 221 0.0 1.0 0.00 0.00 0.00 53 1009.0
20260901032431 74 221 0.0 1.0 0.00 0.00 0.00 52 1009.0
20260901031936 75 221 0.0 1.0 0.00 0.00 0.00 52 1008.9
20260901031433 75 221 0.0 1.0 0.00 0.00 0.00 52 1008.8
20260901030929 75 221 0.0 1.0 0.00 0.00 0.00 51 1008.7
20260901030446 76 222 0.0 0.0 0.00 0.00 0.00 51 1008.8
20260901030006 76 222 0.0 0.0 0.00 0.00 0.00 51 1008.8
20260901025422 76 221 0.0 0.0 0.00 0.00 0.00 49 1008.9
20260901024919 77 222 0.0 0.0 0.00 0.00 0.00 49 1008.9
20260901024446 78 222 0.0 0.0 0.00 0.00 0.00 48 1008.9
20260901023943 78 222 0.0 0.0 0.00 0.00 0.00 47 1008.9
20260901023442 79 222 0.0 1.0 0.00 0.00 0.00 47 1008.9
20260901022921 79 222 0.0 1.0 0.00 0.00 0.00 46 1008.8
20260901022440 80 222 0.0 0.0 0.00 0.00 0.00 45 1008.8
20260901021932 80 222 0.0 1.0 0.00 0.00 0.00 44 1008.8
20260901021439 81 220 0.0 1.0 0.00 0.00 0.00 44 1008.7
20260901020936 81 219 0.0 1.0 0.00 0.00 0.00 43 1008.7
20260901020454 81 220 0.0 1.0 0.00 0.00 0.00 42 1008.7
20260901015938 81 219 0.0 2.0 0.00 0.00 0.00 41 1008.7
20260901015434 81 219 0.0 2.0 0.00 0.00 0.00 40 1008.6
20260901014932 82 231 0.0 2.0 0.00 0.00 0.00 41 1008.6
20260901014430 82 253 1.0 2.0 0.00 0.00 0.00 40 1008.7
20260901013928 83 226 1.0 2.0 0.00 0.00 0.00 41 1008.7
20260901013428 83 269 1.0 2.0 0.00 0.00 0.00 41 1008.6
20260901012920 83 231 1.0 2.0 0.00 0.00 0.00 41 1008.7
20260901012418 84 245 1.0 2.0 0.00 0.00 0.00 41 1008.7
20260901011936 84 285 0.0 2.0 0.00 0.00 0.00 42 1008.7
20260901011432 84 236 0.0 2.0 0.00 0.00 0.00 42 1008.6
20260901010929 84 244 0.0 2.0 0.00 0.00 0.00 42 1008.7
20260901010437 85 244 1.0 3.0 0.00 0.00 0.00 41 1008.6
20260901005933 85 246 1.0 2.0 0.00 0.00 0.00 41 1008.6
20260901005428 85 280 0.0 2.0 0.00 0.00 0.00 42 1008.6
20260901004955 85 243 0.0 3.0 0.00 0.00 0.00 42 1008.7
20260901004432 85 245 1.0 3.0 0.00 0.00 0.00 42 1008.7
20260901003947 85 283 1.0 4.0 0.00 0.00 0.00 43 1008.7
20260901003424 85 219 2.0 4.0 0.00 0.00 0.00 43 1008.7
20260901002931 85 255 1.0 4.0 0.00 0.00 0.00 43 1008.7
20260901002424 85 253 1.0 3.0 0.00 0.00 0.00 42 1008.7
20260901002003 86 290 1.0 3.0 0.00 0.00 0.00 41 1008.7
20260901001421 86 250 0.0 4.0 0.00 0.00 0.00 42 1008.7
20260901000918 86 236 1.0 4.0 0.00 0.00 0.00 42 1008.7
20260901000444 86 253 1.0 3.0 0.00 0.00 0.00 42 1008.7
20260831235943 86 242 1.0 3.0 0.00 0.00 0.00 41 1008.7
20260831235454 86 257 1.0 3.0 0.00 0.00 0.00 41 1008.7
20260831234930 86 254 1.0 3.0 0.00 0.00 0.00 40 1008.8
20260831234429 87 262 1.0 5.0 0.00 0.00 0.00 40 1008.7
20260831233955 87 99 1.0 5.0 0.00 0.00 0.00 39 1008.7
20260831233432 87 285 2.0 3.0 0.00 0.00 0.00 39 1008.6
20260831232929 87 290 2.0 4.0 0.00 0.00 0.00 39 1008.8
20260831232456 87 162 1.0 5.0 0.00 0.00 0.00 39 1008.8
20260831231952 86 261 2.0 5.0 0.00 0.00 0.00 38 1008.8
20260831231429 87 225 2.0 5.0 0.00 0.00 0.00 38 1008.7
20260831230927 87 100 1.0 3.0 0.00 0.00 0.00 39 1008.7
20260831230424 86 134 1.0 5.0 0.00 0.00 0.00 38 1008.8
20260831225921 86 224 1.0 4.0 0.00 0.00 0.00 38 1008.8
20260831225443 86 264 2.0 6.0 0.00 0.00 0.00 39 1008.8
20260831224919 86 288 2.0 7.0 0.00 0.00 0.00 38 1008.9
20260831224417 85 290 2.0 7.0 0.00 0.00 0.00 39 1008.9
20260831223934 86 221 3.0 7.0 0.00 0.00 0.00 40 1009.0
20260831223432 86 256 2.0 5.0 0.00 0.00 0.00 40 1008.9
20260831222939 86 117 1.0 3.0 0.00 0.00 0.00 40 1009.0
20260831222436 85 240 1.0 3.0 0.00 0.00 0.00 40 1009.0
20260831221949 85 249 1.0 3.0 0.00 0.00 0.00 41 1009.1
20260831221426 85 236 1.0 3.0 0.00 0.00 0.00 41 1009.2
20260831220924 85 245 1.0 4.0 0.00 0.00 0.00 40 1009.3
20260831220434 85 274 1.0 4.0 0.00 0.00 0.00 41 1009.4
20260831215941 85 229 2.0 4.0 0.00 0.00 0.00 41 1009.4
20260831215438 85 42 1.0 4.0 0.00 0.00 0.00 41 1009.5
20260831214933 84 221 3.0 4.0 0.00 0.00 0.00 42 1009.6
20260831214452 84 242 2.0 4.0 0.00 0.00 0.00 41 1009.8
20260831213957 84 55 0.0 8.0 0.00 0.00 0.00 43 1009.8
20260831212949 83 224 1.0 4.0 0.00 0.00 0.00 44 1009.9
20260831212424 83 358 0.0 6.0 0.00 0.00 0.00 44 1010.0
20260831211924 82 262 1.0 6.0 0.00 0.00 0.00 46 1010.0
20260831211504 83 290 3.0 6.0 0.00 0.00 0.00 43 1010.2
20260831210921 83 221 1.0 6.0 0.00 0.00 0.00 45 1010.1
20260831210439 82 51 3.0 6.0 0.00 0.00 0.00 45 1010.2
20260831205943 82 176 1.0 4.0 0.00 0.00 0.00 45 1010.1
20260831205441 81 86 2.0 8.0 0.00 0.00 0.00 47 1010.2
20260831204920 81 262 3.0 8.0 0.00 0.00 0.00 47 1010.1
20260831204455 81 245 1.0 8.0 0.00 0.00 0.00 48 1010.2
20260831204002 81 286 3.0 8.0 0.00 0.00 0.00 47 1010.2
20260831203435 81 208 3.0 10.0 0.00 0.00 0.00 47 1010.3
20260831202932 80 214 2.0 10.0 0.00 0.00 0.00 48 1010.4
20260831202440 82 256 3.0 7.0 0.00 0.00 0.00 46 1010.4
20260831201937 82 264 2.0 5.0 0.00 0.00 0.00 46 1010.5
20260831201434 82 274 1.0 3.0 0.00 0.00 0.00 47 1010.5
20260831200933 81 243 1.0 3.0 0.00 0.00 0.00 49 1010.5
20260831200449 80 181 1.0 4.0 0.00 0.00 0.00 49 1010.6
20260831195927 80 269 2.0 4.0 0.00 0.00 0.00 48 1010.7
20260831195425 80 260 1.0 6.0 0.00 0.00 0.00 50 1010.7
20260831194943 79 225 2.0 7.0 0.00 0.00 0.00 50 1010.9
20260831194423 78 27 2.0 7.0 0.00 0.00 0.00 51 1011.0
20260831193921 79 259 2.0 5.0 0.00 0.00 0.00 50 1011.1
20260831193418 79 276 1.0 5.0 0.00 0.00 0.00 52 1011.0
20260831192937 77 218 1.0 7.0 0.00 0.00 0.00 53 1011.1
20260831192444 77 252 3.0 7.0 0.00 0.00 0.00 52 1011.2
20260831191940 78 244 1.0 5.0 0.00 0.00 0.00 53 1011.3
20260831191452 77 246 1.0 5.0 0.00 0.00 0.00 54 1011.3
20260831190930 77 110 2.0 5.0 0.00 0.00 0.00 53 1011.4
20260831190428 77 100 2.0 4.0 0.00 0.00 0.00 53 1011.5
20260831185922 76 60 1.0 4.0 0.00 0.00 0.00 53 1011.6
20260831185424 76 105 1.0 5.0 0.00 0.00 0.00 55 1011.6
20260831184945 74 89 1.0 5.0 0.00 0.00 0.00 56 1011.6
20260831184441 75 152 3.0 5.0 0.00 0.00 0.00 55 1011.7
20260831183938 74 240 1.0 4.0 0.00 0.00 0.00 57 1011.7
20260831183417 74 203 2.0 4.0 0.00 0.00 0.00 57 1011.9
20260831182935 74 288 2.0 4.0 0.00 0.00 0.00 57 1012.0
20260831182432 73 15 1.0 6.0 0.00 0.00 0.00 58 1012.0
20260831181953 73 253 3.0 6.0 0.00 0.00 0.00 58 1012.1
20260831181426 73 245 1.0 4.0 0.00 0.00 0.00 59 1012.2
20260831180944 72 221 1.0 4.0 0.00 0.00 0.00 61 1012.2
20260831180444 70 144 1.0 6.0 0.00 0.00 0.00 63 1012.3
20260831175920 70 216 2.0 6.0 0.00 0.00 0.00 62 1012.4
20260831175417 70 204 2.0 6.0 0.00 0.00 0.00 64 1012.4
20260831174944 70 204 1.0 3.0 0.00 0.00 0.00 64 1012.5
20260831174441 70 134 1.0 3.0 0.00 0.00 0.00 65 1012.5
20260831173938 69 75 0.0 4.0 0.00 0.00 0.00 65 1012.6
20260831173434 69 127 1.0 4.0 0.00 0.00 0.00 65 1012.6
20260831172927 68 176 1.0 3.0 0.00 0.00 0.00 68 1012.7
20260831172445 67 139 0.0 3.0 0.00 0.00 0.00 68 1012.8
20260831171921 67 206 1.0 3.0 0.00 0.00 0.00 70 1012.8
20260831171423 66 207 1.0 3.0 0.00 0.00 0.00 72 1012.8
20260831170921 66 271 2.0 3.0 0.00 0.00 0.00 71 1012.8
20260831170418 66 259 1.0 3.0 0.00 0.00 0.00 71 1012.9
20260831165944 66 214 1.0 2.0 0.00 0.00 0.00 70 1012.9
20260831165444 66 120 0.0 2.0 0.00 0.00 0.00 72 1012.9
20260831164941 65 153 1.0 3.0 0.00 0.00 0.00 74 1012.9
20260831164417 64 236 1.0 3.0 0.00 0.00 0.00 73 1013.0
20260831163938 64 224 0.0 2.0 0.00 0.00 0.00 74 1013.0
20260831163436 64 259 1.0 2.0 0.00 0.00 0.00 73 1013.0
20260831162956 64 217 0.0 1.0 0.00 0.00 0.00 73 1013.1
20260831162442 62 200 0.0 0.0 0.00 0.00 0.00 75 1013.1
20260831161939 62 224 0.0 0.0 0.00 0.00 0.00 75 1013.1
20260831161437 61 229 0.0 0.0 0.00 0.00 0.00 76 1013.2
20260831160953 61 259 0.0 0.0 0.00 0.00 0.00 75 1013.4
20260831160429 61 236 0.0 1.0 0.00 0.00 0.00 75 1013.4
20260831155950 60 139 0.0 1.0 0.00 0.00 0.00 76 1013.4
20260831155445 60 267 0.0 1.0 0.00 0.00 0.00 77 1013.4
20260831154921 59 175 0.0 1.0 0.00 0.00 0.00 77 1013.5
20260831154418 58 146 0.0 2.0 0.00 0.00 0.00 78 1013.5
20260831154005 58 184 0.0 2.0 0.00 0.00 0.00 79 1013.4
20260831153441 58 205 0.0 2.0 0.00 0.00 0.00 77 1013.5
20260831152939 58 153 0.0 2.0 0.00 0.00 0.00 79 1013.5
20260831152436 57 105 1.0 2.0 0.00 0.00 0.00 79 1013.7
20260831151923 57 152 1.0 3.0 0.00 0.00 0.00 80 1013.6
20260831151455 56 158 0.0 3.0 0.00 0.00 0.00 82 1013.7
20260831150941 56 216 0.0 1.0 0.00 0.00 0.00 80 1013.7
20260831150440 57 140 0.0 1.0 0.00 0.00 0.00 79 1013.7
20260831145939 58 140 0.0 1.0 0.00 0.00 0.00 80 1013.7
20260831145417 57 140 0.0 1.0 0.00 0.00 0.00 82 1013.7
20260831145006 57 139 0.0 1.0 0.00 0.00 0.00 83 1013.7
20260831144442 56 146 0.0 0.0 0.00 0.00 0.00 83 1013.7
20260831143940 56 147 0.0 0.0 0.00 0.00 0.00 84 1013.7
20260831143436 55 152 0.0 0.0 0.00 0.00 0.00 85 1013.7
20260831142933 55 152 0.0 0.0 0.00 0.00 0.00 86 1013.8
20260831142428 55 151 0.0 0.0 0.00 0.00 0.00 89 1013.7
20260831141944 54 151 0.0 0.0 0.00 0.00 0.00 90 1013.7
20260831141444 53 151 0.0 0.0 0.00 0.00 0.00 90 1013.7
20260831140941 53 151 0.0 0.0 0.00 0.00 0.00 92 1013.7
20260831140419 52 151 0.0 0.0 0.00 0.00 0.00 93 1013.7
20260831135917 51 151 0.0 0.0 0.00 0.00 0.00 93 1013.8
20260831135435 51 151 0.0 0.0 0.00 0.00 0.00 93 1013.8
20260831134933 50 151 0.0 0.0 0.00 0.00 0.00 93 1013.8
20260831134500 50 151 0.0 0.0 0.00 0.00 0.00 93 1013.8
20260831133932 50 151 0.0 0.0 0.00 0.00 0.00 92 1013.8
20260831133431 50 151 0.0 0.0 0.00 0.00 0.00 93 1013.7
20260831132938 50 151 0.0 0.0 0.00 0.00 0.00 93 1013.7
20260831132455 50 151 0.0 1.0 0.00 0.00 0.00 93 1013.8
20260831131932 51 152 0.0 1.0 0.00 0.00 0.00 93 1013.8
20260831131452 50 195 0.0 0.0 0.00 0.00 0.00 93 1013.9
20260831130930 51 195 0.0 0.0 0.00 0.00 0.00 92 1013.9
20260831130427 51 195 0.0 0.0 0.00 0.00 0.00 92 1013.9
20260831125919 51 195 0.0 0.0 0.00 0.00 0.00 92 1013.9
20260831125425 51 195 0.0 0.0 0.00 0.00 0.00 92 1013.9
20260831124922 51 195 0.0 0.0 0.00 0.00 0.00 93 1014.0
20260831124435 51 154 0.0 0.0 0.00 0.00 0.00 92 1014.0
20260831123921 51 154 0.0 0.0 0.00 0.00 0.00 92 1014.0
20260831123419 51 154 0.0 0.0 0.00 0.00 0.00 92 1014.1
20260831123006 51 154 0.0 0.0 0.00 0.00 0.00 92 1014.1
20260831122442 51 154 0.0 0.0 0.00 0.00 0.00 92 1014.1
20260831121922 51 154 0.0 0.0 0.00 0.00 0.00 91 1014.2
20260831121439 51 154 0.0 0.0 0.00 0.00 0.00 91 1014.3
20260831120946 51 154 0.0 0.0 0.00 0.00 0.00 91 1014.2
20260831120440 51 154 0.0 0.0 0.00 0.00 0.00 91 1014.2
20260831115937 52 154 0.0 0.0 0.00 0.00 0.00 90 1014.3
20260831115435 52 155 0.0 0.0 0.00 0.00 0.00 90 1014.3
20260831114953 52 148 0.0 0.0 0.00 0.00 0.00 90 1014.3
20260831114440 52 148 0.0 0.0 0.00 0.00 0.00 91 1014.3
20260831113918 52 148 0.0 0.0 0.00 0.00 0.00 90 1014.4
20260831113435 53 146 0.0 0.0 0.00 0.00 0.00 90 1014.5
20260831112930 53 146 0.0 0.0 0.00 0.00 0.00 90 1014.4
20260831112426 53 105 0.0 0.0 0.00 0.00 0.00 90 1014.5
20260831111926 54 104 0.0 0.0 0.00 0.00 0.00 91 1014.4
20260831111423 54 105 0.0 0.0 0.00 0.00 0.00 91 1014.5
20260831110916 53 78 0.0 0.0 0.00 0.00 0.00 91 1014.6
20260831110435 53 78 0.0 0.0 0.00 0.00 0.00 91 1014.6
20260831105941 53 78 0.0 0.0 0.00 0.00 0.00 91 1014.6
20260831105420 53 78 0.0 0.0 0.00 0.00 0.00 91 1014.6
20260831104919 53 78 0.0 0.0 0.00 0.00 0.00 90 1014.7
20260831104418 54 78 0.0 0.0 0.00 0.00 0.00 90 1014.7
20260831103936 54 78 0.0 0.0 0.00 0.00 0.00 90 1014.7
20260831103443 54 78 0.0 0.0 0.00 0.00 0.00 89 1014.7
20260831102942 54 78 0.0 0.0 0.00 0.00 0.00 89 1014.8
20260831102418 54 78 0.0 0.0 0.00 0.00 0.00 89 1014.9
20260831101932 54 78 0.0 0.0 0.00 0.00 0.00 89 1014.9
20260831101459 54 78 0.0 0.0 0.00 0.00 0.00 89 1014.9
20260831100952 55 78 0.0 0.0 0.00 0.00 0.00 89 1015.0
20260831100453 55 78 0.0 0.0 0.00 0.00 0.00 89 1014.9
20260831095929 55 78 0.0 0.0 0.00 0.00 0.00 89 1015.0
20260831095449 55 78 0.0 0.0 0.00 0.00 0.00 89 1015.0
20260831094919 55 78 0.0 0.0 0.00 0.00 0.00 89 1015.1
20260831094440 55 78 0.0 0.0 0.00 0.00 0.00 89 1015.1
20260831093937 55 78 0.0 0.0 0.00 0.00 0.00 89 1015.2
20260831093434 55 78 0.0 0.0 0.00 0.00 0.00 88 1015.3
20260831092932 55 78 0.0 0.0 0.00 0.00 0.00 88 1015.3
20260831092432 55 78 0.0 0.0 0.00 0.00 0.00 87 1015.4
20260831091927 56 78 0.0 0.0 0.00 0.00 0.00 87 1015.4
20260831091426 56 78 0.0 0.0 0.00 0.00 0.00 87 1015.4
20260831090918 56 78 0.0 0.0 0.00 0.00 0.00 88 1015.4
20260831090445 56 78 0.0 0.0 0.00 0.00 0.00 87 1015.5
20260831085941 56 78 0.0 0.0 0.00 0.00 0.00 87 1015.4
20260831085418 56 78 0.0 0.0 0.00 0.00 0.00 87 1015.6
20260831084932 56 78 0.0 0.0 0.00 0.00 0.00 87 1015.5
20260831084439 56 78 0.0 0.0 0.00 0.00 0.00 87 1015.5
20260831083937 56 78 0.0 0.0 0.00 0.00 0.00 86 1015.7
20260831083436 56 78 0.0 0.0 0.00 0.00 0.00 86 1015.7
20260831082934 57 78 0.0 0.0 0.00 0.00 0.00 85 1015.8
20260831082432 57 78 0.0 0.0 0.00 0.00 0.00 85 1015.9
20260831081939 57 165 0.0 0.0 0.00 0.00 0.00 85 1015.9
20260831081436 57 165 0.0 0.0 0.00 0.00 0.00 85 1016.0
20260831080932 58 86 0.0 0.0 0.00 0.00 0.00 85 1016.0
20260831080449 58 86 0.0 0.0 0.00 0.00 0.00 85 1016.0
20260831075923 58 85 0.0 0.0 0.00 0.00 0.00 84 1016.0
20260831075443 58 85 0.0 0.0 0.00 0.00 0.00 84 1016.1
20260831074942 58 85 0.0 0.0 0.00 0.00 0.00 84 1016.1
20260831074440 58 85 0.0 0.0 0.00 0.00 0.00 84 1016.2
20260831073918 58 86 0.0 0.0 0.00 0.00 0.00 83 1016.2
20260831073435 59 85 0.0 0.0 0.00 0.00 0.00 83 1016.2
20260831072942 59 85 0.0 0.0 0.00 0.00 0.00 83 1016.3
20260831072440 59 86 0.0 0.0 0.00 0.00 0.00 83 1016.4
20260831071957 59 85 0.0 0.0 0.00 0.00 0.00 82 1016.4
20260831071429 59 85 0.0 0.0 0.00 0.00 0.00 82 1016.4
20260831070927 59 85 0.0 0.0 0.00 0.00 0.00 82 1016.5
20260831070453 59 86 0.0 0.0 0.00 0.00 0.00 81 1016.5